Погода в Мирном

Россия / Архангельская область     62°45′52″N   40°20′09″E
темп.,
°C
ветер,
м/с
пор.,
м/с
влажн.,
%
обл.,
%
осадки,
мм/ч
давл.,
гПа
погр.,
м
17 мая, пн
пн1700:00+9ссз2396100 0.0 101061
03:00+8сз2296100 0.0 101236
06:00+11зсз1392100 0.0 1014152
09:00+15сз1274100 0.0 1015449
12:00+20з12555 0.0 10161145
15:00+22ююв014537 0.0 10161809
18:00+17ююз1165100 0.0 101716
21:00+15вюв2272100 0.0 101723
18 мая, вт
вт1800:00+13юв388197 0.0 1018142
03:00+12юв31279100 0.0 1018249
06:00+14юв41271100 0.0 1017438
09:00+19юв51159100 0.0 1016735
12:00+23ююв695037 0.1 10151191
15:00+26ююв59477 0.1 10141442
18:00+25ююв511515 0.0 10131405
21:00+21ююв5146428 0.0 1013621
19 мая, ср
ср1900:00+19ююв515776 0.0 1013516
03:00+17ююв4148613 0.0 1013392
06:00+18ююв411805 0.0 1013387
09:00+23ю59599 0.0 1013738
12:00+28ю593742 0.0 10121397
15:00+30ю510294 0.0 10123647
18:00+27ююв510340 0.0 10111313
21:00+22ююв415490 0.0 1011538
20 мая, чт
чт2000:00+20ююв515640 0.0 1011569
03:00+18ю414745 0.0 1011465
06:00+19ю412720 0.0 1011392
09:00+23ю476063 0.0 1011594
12:00+27ю584395 0.0 10101481
15:00+29ю57295 0.0 10093081
18:00+27ююв473531 0.0 10081952
21:00+21ююв41252100 0.0 1008412
21 мая, пт
пт2100:00+19ююв31161100 0.0 1007371
03:00+16ююв3973100 0.0 1007218
06:00+18ююв39681 0.0 1006314
09:00+22ююв47491 0.0 10051402
12:00+24ююв5941100 0.0 10032537
15:00+22ююв4849100 0.0 10031678
18:00+21ю475141 0.1 10021375
21:00+16ююв2580100 1.5 1001103